Location: Quaker Farms
(41.4276°N, 73.1557°W)
Time: 02:59:02
(UTC+00:00)

SR - All Passes

Search period start: 13 June 2021 00:00
Search period end: 23 June 2021 00:00
Orbit: 574 x 881 km, 66.7° (Epoch: 12 June)

Date Brightness Start Highest point End Pass type
(mag) Time Alt. Az. Time Alt. Az. Time Alt. Az.
13 Jun - 00:45:11 10° W 00:49:17 19° NW 00:53:22 10° N daylight
13 Jun - 06:01:53 10° N 06:04:32 14° NE 06:07:05 10° ENE visible
13 Jun - 07:42:25 10° NNW 07:47:45 69° ENE 07:52:34 10° SE visible
13 Jun - 09:26:23 10° WNW 09:29:01 14° WSW 09:31:33 10° SW daylight
13 Jun - 22:10:59 10° S 22:16:38 50° ESE 22:22:20 10° NE daylight
13 Jun - 23:53:48 10° WSW 23:59:00 31° NW 00:04:08 10° NNE daylight
14 Jun - 06:52:48 10° NNW 06:57:45 36° NE 07:02:16 10° ESE visible
14 Jun - 08:35:12 10° NW 08:39:41 30° WSW 08:43:49 10° S visible
14 Jun - 21:22:18 10° SSE 21:27:05 27° ESE 21:31:55 10° NE daylight
14 Jun - 23:03:09 10° SW 23:08:54 52° NW 23:14:39 10° NNE daylight
15 Jun - 00:49:55 10° WNW 00:52:21 12° NW 00:54:45 10° N daylight
15 Jun - 06:03:29 10° N 06:07:31 21° NE 06:11:17 10° E visible
15 Jun - 07:44:56 10° NW 07:50:08 63° WSW 07:54:50 10° SSE visible
15 Jun - 20:35:02 10° SE 20:37:43 13° ESE 20:40:26 10° ENE daylight
15 Jun - 22:13:06 10° SSW 22:19:01 87° ESE 22:24:56 10° NNE daylight
15 Jun - 23:57:38 10° W 00:01:51 20° NW 00:06:03 10° N daylight
16 Jun - 05:14:42 10° N 05:17:04 13° NE 05:19:22 10° ENE visible
16 Jun - 06:55:04 10° NNW 07:00:21 65° ENE 07:05:07 10° SE visible
16 Jun - 08:38:47 10° WNW 08:41:41 15° WSW 08:44:26 10° SW visible
16 Jun - 21:23:41 10° S 21:29:17 47° ESE 21:34:55 10° NE daylight
16 Jun - 23:06:20 10° WSW 23:11:36 32° NW 23:16:48 10° NNE daylight
17 Jun - 06:05:30 10° NNW 06:10:19 34° NE 06:14:45 10° ESE visible
17 Jun - 07:47:45 10° NW 07:52:19 32° WSW 07:56:31 10° S visible
17 Jun - 20:35:05 10° SSE 20:39:46 25° ESE 20:44:27 10° NE daylight
17 Jun - 22:15:43 10° SW 22:21:32 56° NW 22:27:17 10° NNE daylight
18 Jun - 00:02:14 10° WNW 00:04:53 13° NW 00:07:31 10° N daylight
18 Jun - 05:16:12 10° N 05:20:05 20° NE 05:23:42 10° E visible
18 Jun - 06:57:33 10° NW 07:02:45 68° WSW 07:07:27 10° SSE visible
18 Jun - 19:48:07 10° SE 19:50:24 12° ESE 19:52:42 10° ENE daylight
18 Jun - 21:25:43 10° SSW 21:31:38 83° ESE 21:37:32 10° NNE daylight
18 Jun - 23:10:04 10° W 23:14:26 21° NW 23:18:44 10° N daylight
19 Jun - 04:27:34 10° NNE 04:29:36 12° NE 04:31:35 10° ENE visible
19 Jun - 06:07:43 10° NNW 06:12:57 60° ENE 06:17:40 10° SE visible
19 Jun - 07:51:15 10° WNW 07:54:20 16° WSW 07:57:17 10° SW visible
19 Jun - 20:36:23 10° S 20:41:57 44° ESE 20:47:30 10° NE daylight
19 Jun - 22:18:51 10° WSW 22:24:11 34° NW 22:29:28 10° NNE daylight
20 Jun - 05:18:10 10° NNW 05:22:54 32° NE 05:27:14 10° ESE visible
20 Jun - 07:00:20 10° NW 07:04:57 34° WSW 07:09:12 10° S visible
20 Jun - 19:47:54 10° SSE 19:52:26 23° ESE 19:56:58 10° ENE daylight
20 Jun - 21:28:18 10° SW 21:34:09 59° NW 21:39:56 10° NNE daylight
20 Jun - 23:14:34 10° WNW 23:17:26 14° NW 23:20:16 10° N daylight
21 Jun - 04:28:56 10° N 04:32:37 19° NE 04:36:05 10° E visible
21 Jun - 06:10:10 10° NNW 06:15:22 73° WSW 06:20:04 10° SSE visible
21 Jun - 19:01:19 10° ESE 19:03:05 11° E 19:04:52 10° E daylight
21 Jun - 20:38:22 10° SSW 20:44:17 78° ESE 20:50:09 10° NNE daylight
21 Jun - 22:22:32 10° W 22:27:00 22° NW 22:31:25 10° N daylight
22 Jun - 03:40:29 10° NNE 03:42:07 11° NNE 03:43:44 10° NE visible
22 Jun - 05:20:22 10° NNW 05:25:32 56° NE 05:30:12 10° SE visible
22 Jun - 07:03:43 10° WNW 07:07:00 18° WSW 07:10:06 10° SW visible
22 Jun - 19:49:07 10° S 19:54:36 41° ESE 20:00:04 10° NE daylight
22 Jun - 21:31:23 10° WSW 21:36:47 36° NW 21:42:06 10° NNE daylight
